sat.trackr.live / text

‹ back to catalog

DSX

NORAD 44344 · 2019-036F

PAYLOAD ACTIVE UNKNOWN

§ Identity

Operator
Country
US
Launch date
2019-06-25
Launch site
AFETR
Launch vehicle
Mass (kg)
RCS (m²)

External: N2YO · Heavens-Above · Gunter

§ Orbital elements

Epoch: 2026-09-06T19:57:52.850880Z

Period
316.92 min
Inclination
42.3061°
Eccentricity
0.1967341
Mean motion
4.54371306 rev/d
Perigee alt
5,990.5 km
Apogee alt
12,049.0 km
Semi-major
15,397.9 km
B*
0.0000e+0
RAAN
320.8582°
Arg perigee
50.8515°
Mean anomaly
325.0949°
Rev number
11,950

§ Raw data

DSX1 44344U 19036F   26249.83186170 -.00000044  00000+0  00000+0 0  99922 44344  42.3061 320.8582 1967341  50.8515 325.0949  4.54371306119501

JSON: /api/v1/satellites/44344 · /tle

For live sub-satellite position, see the globe view (requires WebGL).

§ Visibility from observer

Set your observer location to see the next 7 days of passes ≥ 10°. The values pass through the URL so the page stays shareable.

No JS? Fill the form by hand. The geolocation button needs JavaScript.